Home > Time Zones > World Clock > Weather > U.S.A. > Bend > Past weeks

Flag for U.S.A. Weather past 2 weeks in Bend, Oregon, U.S.A.

Now
45 °F

Overcast.


Feels Like: 39 °F
Forecast: 30 / 48 °F
Wind: 12 mph from Northwest

Location: Roberts Field Airport

Current Time: Apr 24, 2015 at 9:16:42 PM

Latest Report: Apr 24, 2015 at 7:56 PM


Visibility: 10 mi

Pressure: 29.86 "Hg

Humidity: 58%

Dew point: 31 °F

Location of BendLocation

Historic Weather in Bend — Graph

°F

Bend temperature yesterday

Maximum temperature yesterday: 52 °F (at 3:56 PM)
Minimum temperature yesterday: 26 °F (at 1:56 AM)
Average temperature yesterday: 42 °F

Past Weeks' High & Low Weather Summary

 TemperatureHumidityPressure
High75 °F (Apr 20, 3:56 PM)96% (Apr 15, 2:56 AM)30.50 "Hg (Apr 15, 2:56 AM)
Low20 °F (Apr 15, 2:56 AM)14% (Apr 20, 4:56 PM)29.76 "Hg (Apr 13, 5:56 PM)
Average46 °F52%30.06 "Hg
* Reported Apr 9 7:56 PM — Apr 24 7:56 PM, Bend, Weather by CustomWeather, © 2015

Note: Actual official high and low records may vary slightly from our data, if they occured in-between our weather recording intervals... More about our weather records

Advertising

Bend weather history for previous 24 hours

 ConditionsComfort  
Time TempWeatherWind HumidityBarometerVisibility
7:56 PM
Fri, Apr 24
45 °FOvercast.12 mph58%29.86 "Hg10 mi
6:56 PM45 °FPartly sunny.15 mph58%29.84 "Hg10 mi
5:56 PM50 °FScattered clouds.14 mph43%29.81 "Hg10 mi
3:56 PM52 °FSunny.7 mph34%29.81 "Hg10 mi
2:56 PM51 °FSunny.12 mph36%29.83 "Hg10 mi
1:56 PM51 °FPartly sunny.5 mph35%29.84 "Hg10 mi
12:56 PM50 °FPartly sunny.8 mph38%29.85 "Hg10 mi
11:56 AM48 °FSunny.3 mph39%29.86 "Hg10 mi
10:56 AM45 °FScattered clouds.5 mph45%29.86 "Hg10 mi
9:56 AM43 °FSunny.6 mph51%29.85 "Hg10 mi
8:56 AM41 °FPartly sunny.No wind53%29.85 "Hg10 mi
7:56 AM39 °FSunny.No wind62%29.83 "Hg10 mi
6:56 AM37 °FOvercast.3 mph67%29.82 "Hg10 mi
5:56 AM37 °FOvercast.No wind70%29.81 "Hg10 mi
4:56 AM36 °FPassing clouds.5 mph73%29.81 "Hg10 mi
3:56 AM35 °FClear.6 mph78%29.80 "Hg10 mi
2:56 AM35 °FClear.3 mph82%29.80 "Hg10 mi
1:56 AM36 °FClear.8 mph79%29.79 "Hg10 mi
12:56 AM36 °FClear.7 mph79%29.79 "Hg10 mi
11:56 PM
Thu, Apr 23
39 °FClear.6 mph70%29.80 "Hg10 mi
10:56 PM41 °FClear.No wind65%29.80 "Hg10 mi
9:56 PM44 °FPassing clouds.7 mph63%29.80 "Hg10 mi
Weather by CustomWeather, © 2015

See weather overviewHow to use our weather pages